Meteo Giornale » Osservazioni meteo Stati Uniti (USA) » Rochester

ore: 19:55 - Osservazioni Meteo Rochester
Lat. 41° 4' N Lon. 86° 11' W Alt. 241 metri s.l.m.

molto_nuvoloso

29 °C

Molto Nuvoloso

Temp. 24 Ore

22 °C

31 °C

Nord

5.5 Km/h

Dew point 23 °C

Umidità 70 %

Visibilità  10 Km

Il sole sorge alle ore 07:10

Il sole tramonta alle ore 20:19

Data e Ora Cielo e Fenomeni T °C DP °C Um. % Pres. hPa Vis. km Vento km/h
Oggi h: 19:55 molto_nuvoloso Molto Nuvoloso 29 23 70 1016 10 N 5.5
Oggi h: 19:35 sereno Sereno 29 23 70 1016 10 S/SO 9.3
Oggi h: 19:15 sereno Sereno 30 23 66 1015 10 S 7.4
Oggi h: 18:55 sereno Sereno 30 23 66 1015 10 S 11.1
Oggi h: 18:35 poco_nuvoloso Poco Nuvoloso 30 23 66 1015 10 S/SO 13
Oggi h: 18:15 sereno Sereno 31 23 62 1015 10 S 16.7
Oggi h: 17:55 sereno Sereno 31 23 62 1015 10 S 14.8
Oggi h: 17:35 sereno Sereno 31 23 62 1015 10 S 20.3
Oggi h: 17:15 sereno Sereno 31 23 62 1015 10 S 16.7
Oggi h: 16:55 sereno Sereno 31 23 62 1015 10 S/SO 16.7
Oggi h: 16:35 sereno Sereno 31 23 62 1015 10 S 16.7
Oggi h: 16:15 sereno Sereno 31 24 66 1015 10 S 22.2
Oggi h: 15:55 sereno Sereno 31 23 62 1015 10 S 16.7
Oggi h: 15:35 sereno Sereno 30 23 66 1016 10 S 16.7
Oggi h: 15:15 sereno Sereno 30 23 66 1016 13 S 16.7
Oggi h: 14:55 sereno Sereno 30 22 62 1016 10 S/SO 18.5
Oggi h: 14:35 sereno Sereno 28 23 74 1017 10 S/SO 14.8
Oggi h: 14:15 poco_nuvoloso Poco Nuvoloso 28 22 69 1017 10 S/SO 13
Oggi h: 13:55 molto_nuvoloso Molto Nuvoloso 28 22 69 1017 10 S 11.1
Oggi h: 13:35 nuvoloso Nuvoloso 26 22 78 1018 14 N 5.5
Oggi h: 13:15 molto_nuvoloso Molto Nuvoloso 26 22 78 1018 14 S 11.1
Oggi h: 12:55 molto_nuvoloso Molto Nuvoloso 26 22 78 1018 10 N 5.5
Oggi h: 12:35 sereno Sereno 25 21 78 1018 10 S/SO 7.4
Oggi h: 12:15 sereno Sereno 25 22 83 1018 10 S 9.3
Oggi h: 11:55 sereno Sereno 25 22 83 1018 10 S/SO 7.4
Oggi h: 11:35 sereno Sereno 24 21 83 1018 10 S/SO 9.3
Oggi h: 11:15 coperto_pioggia Pioggia 23 21 88 1018 13 N 7.4
Oggi h: 10:55 poco_nuvoloso Poco Nuvoloso 24 21 83 1018 10 SO 11.1
Oggi h: 10:35 sereno Sereno 24 21 83 1018 10 S/SO 11.1
Oggi h: 10:15 sereno Sereno 23 20 83 1018 10 S/SO 13
Oggi h: 09:55 sereno Sereno 23 20 83 1018 10 S/SO 7.4
Oggi h: 09:35 sereno Sereno 23 20 83 1018 10 S/SO 9.3
Oggi h: 09:15 sereno Sereno 23 20 83 1018 10 S/SO 7.4
Oggi h: 08:55 sereno Sereno 23 20 83 1017 10 S 9.3
Oggi h: 08:35 sereno Sereno 23 20 83 1017 10 S 7.4
Oggi h: 08:15 sereno Sereno 23 20 83 1017 10 S 9.3
Oggi h: 07:55 sereno Sereno 23 20 83 1017 10 S 9.3
Oggi h: 07:35 sereno Sereno 22 20 88 1017 10 S 11.1
Oggi h: 07:15 sereno Sereno 22 20 88 1016 10 S 11.1
Oggi h: 06:55 sereno Sereno 22 20 88 1016 10 S 11.1
Oggi h: 06:35 sereno Sereno 22 20 88 1017 10 S 11.1
Oggi h: 06:15 sereno Sereno 22 20 88 1016 10 S 9.3
Oggi h: 05:55 sereno Sereno 22 21 94 1017 10 N 0
Oggi h: 05:35 sereno Sereno 22 21 94 1017 10 N 0
Oggi h: 05:15 sereno Sereno 23 21 88 1017 10 N 0
Oggi h: 04:55 sereno Sereno 23 21 88 1016 10 S/SE 9.3
Oggi h: 04:35 poco_nuvoloso Poco Nuvoloso 23 21 88 1016 10 N 5.5
Oggi h: 04:15 nuvoloso Nuvoloso 22 21 94 1016 10 N 5.5
Oggi h: 03:55 molto_nuvoloso Molto Nuvoloso 22 22 100 1016 10 S/SE 11.1
Oggi h: 03:35 coperto Coperto 22 22 100 1016 10 SE 7.4
Oggi h: 03:15 coperto Coperto 22 21 94 1017 14 N 0
Oggi h: 02:55 coperto Coperto 23 22 94 1017 10 SE 7.4
Oggi h: 02:35 coperto Coperto 23 22 94 1017 10 SE 7.4
Oggi h: 02:15 coperto Coperto 22 22 100 1017 10 N 5.5
Oggi h: 01:55 molto_nuvoloso Molto Nuvoloso 23 22 94 1017 10 E/SE 9.3
Oggi h: 01:35 nuvoloso Nuvoloso 23 23 100 1016 10 S/SE 11.1
Oggi h: 01:15 molto_nuvoloso Molto Nuvoloso 22 22 100 1017 10 SE 9.3
Oggi h: 00:55 coperto Coperto 22 22 100 1017 14 N 0
Oggi h: 00:35 coperto Coperto 22 22 100 1017 14 N 5.5
Oggi h: 00:15 molto_nuvoloso Molto Nuvoloso 23 23 100 1017 10 N 0
Ieri h: 23:55 coperto Coperto 22 22 100 1017 14 N 0
Ieri h: 23:35 coperto Coperto 23 22 94 1017 10 N 0
Ieri h: 23:15 coperto Coperto 24 23 94 1017 10 N 0
Ieri h: 22:55 coperto Coperto 24 23 94 1017 10 N 0
Ieri h: 22:35 coperto Coperto 24 23 94 1017 10 N 5.5
Ieri h: 22:15 molto_nuvoloso Molto Nuvoloso 24 22 88 1017 10 S/SE 7.4
Ieri h: 21:55 poco_nuvoloso Poco Nuvoloso 24 22 88 1017 10 N 0
Ieri h: 21:35 sereno Sereno 24 22 88 1017 10 N 0
Ieri h: 21:15 sereno Sereno 25 22 83 1017 10 N 0
Ieri h: 20:55 sereno Sereno 24 22 88 1017 10 N 0
Ieri h: 20:35 sereno Sereno 25 23 88 1016 10 N 0